Weather History for Buffalo, WY

Change the Weather History Date:

Tuesday, September 17, 2013

  Actual Average Record
Temperature  
Mean Temperature 75 °F 57 °F  
Max Temperature 88 °F 71 °F 88 °F (2013)
Min Temperature 61 °F 44 °F 32 °F (2003)
Degree Days  
Heating Degree Days 0 9  
Month to date heating degree days 10 99  
Since 1 July heating degree days 11 164  
Cooling Degree Days 10 1  
Month to date cooling degree days 96 38  
Year to date cooling degree days 710 484  
Growing Degree Days 23 (Base 50)    
Moisture  
Dew Point 47 °F    
Average Humidity 33    
Maximum Humidity 49    
Minimum Humidity 16    
Precipitation  
Precipitation T in 0.04 in 0.50 in (2002)
Month to date precipitation 1.66 0.63  
Year to date precipitation 6.08 10.90  
Sea Level Pressure  
Sea Level Pressure 29.71 in    
Wind  
Wind Speed 7 mph (SW)    
Max Wind Speed 21 mph    
Max Gust Speed 30 mph    
Visibility 10 miles    
Events Rain , Thunderstorm    
T = Trace of Precipitation, MM = Missing Value Source: NWS Daily Summary

Daily Weather History Graph

Daily Weather History Graph

Search for Another Location

Airport:

Trip Planner

Search our weather history database for the weather conditions in past years. The results will help you decide how hot, cold, wet, or windy it might be!

Date:

Astronomy

Sep. 17, 2013 Rise Set
Actual Time 6:48 AM MDT 7:13 PM MDT
Civil Twilight 6:19 AM MDT 7:42 PM MDT
Nautical Twilight 5:45 AM MDT 8:16 PM MDT
Astronomical Twilight 5:09 AM MDT 8:51 PM MDT
Moon 6:03 PM MDT (9/17) 4:43 AM MDT (9/17)
Length of Visible Light 13h 22m
Length of Day
12h 24m
Waxing Gibbous, 96% of the Moon is Illuminated
Sep 17
Waxing Gibbous
Sep 19
Full
Sep 26
Last Quarter
Oct 4
New
Oct 11
First Quarter

Hourly Weather History & Observations

Time (MDT) Temp. Dew Point Humidity Pressure Visibility Wind Dir Wind Speed Gust Speed Precip Events Conditions
12:53 AM 64.0 °F 44.1 °F 48% 29.78 in 10.0 mi West 9.2 mph - N/A   Clear
1:53 AM 64.0 °F 43.0 °F 46% 29.76 in 10.0 mi West 8.1 mph - N/A   Clear
2:53 AM 64.9 °F 43.0 °F 45% 29.76 in 10.0 mi West 10.4 mph - N/A   Clear
3:53 AM 64.0 °F 41.0 °F 43% 29.75 in 10.0 mi West 6.9 mph - N/A   Clear
4:53 AM 66.0 °F 41.0 °F 40% 29.74 in 10.0 mi West 6.9 mph - N/A   Clear
5:53 AM 66.9 °F 41.0 °F 39% 29.74 in 10.0 mi WSW 4.6 mph - N/A   Clear
6:53 AM 62.1 °F 41.0 °F 46% 29.76 in 10.0 mi South 8.1 mph - N/A   Clear
7:53 AM 64.9 °F 43.0 °F 45% 29.78 in 10.0 mi SW 3.5 mph - N/A   Clear
8:53 AM 73.9 °F 42.1 °F 32% 29.73 in 10.0 mi Calm Calm - N/A   Clear
9:53 AM 77.0 °F 48.0 °F 36% 29.72 in 10.0 mi ESE 5.8 mph - N/A   Clear
10:53 AM 77.0 °F 45.0 °F 32% 29.72 in 10.0 mi SSE 3.5 mph - N/A   Clear
11:53 AM 82.0 °F 39.9 °F 22% 29.68 in 10.0 mi Calm Calm - N/A   Clear
12:53 PM 82.9 °F 39.0 °F 21% 29.65 in 10.0 mi SSE 3.5 mph - N/A   Clear
1:53 PM 87.1 °F 37.9 °F 18% 29.61 in 10.0 mi East 6.9 mph - N/A   Clear
2:53 PM 87.1 °F 36.0 °F 16% 29.58 in 10.0 mi East 4.6 mph - N/A   Mostly Cloudy
3:53 PM 73.0 °F 50.0 °F 44% 29.64 in 10.0 mi North 20.7 mph 27.6 mph N/A   Scattered Clouds
4:53 PM 71.1 °F 52.0 °F 51% 29.62 in 10.0 mi NW 9.2 mph 20.7 mph 0.00 in   Clear
5:53 PM 68.0 °F 48.9 °F 50% 29.64 in 10.0 mi NNW 21.9 mph 28.8 mph N/A   Clear
6:53 PM 64.9 °F 51.1 °F 61% 29.65 in 10.0 mi NNW 15.0 mph 26.5 mph N/A   Scattered Clouds
7:02 PM 64.4 °F 50.0 °F 59% 29.80 in 10.0 mi NNW 15.0 mph 26.5 mph N/A Thunderstorm Thunderstorm
7:40 PM 60.8 °F 53.6 °F 77% 29.81 in 10.0 mi North 11.5 mph - 0.01 in   Overcast
7:53 PM 61.0 °F 53.1 °F 75% 29.67 in 10.0 mi NW 11.5 mph - 0.01 in   Mostly Cloudy
8:09 PM 60.8 °F 51.8 °F 72% 29.80 in 10.0 mi NW 5.8 mph - N/A Thunderstorm Thunderstorm
8:24 PM 59.0 °F 51.8 °F 77% 29.80 in 10.0 mi SSE 4.6 mph - N/A   Clear
8:53 PM 59.0 °F 53.1 °F 81% 29.65 in 10.0 mi SSW 4.6 mph - N/A   Clear
9:23 PM 59.0 °F 53.6 °F 82% 29.81 in 10.0 mi SSW 8.1 mph - N/A Thunderstorm Partly Cloudy
9:53 PM 60.1 °F 54.0 °F 80% 29.65 in 9.0 mi SSE 11.5 mph - 0.06 in Rain , Thunderstorm Light Thunderstorms and Rain
10:07 PM 60.8 °F 53.6 °F 77% 29.80 in 10.0 mi South 5.8 mph - 0.00 in   Mostly Cloudy
10:53 PM 60.1 °F 53.1 °F 78% 29.62 in 10.0 mi SSE 6.9 mph - 0.00 in   Overcast
11:53 PM 60.1 °F 52.0 °F 75% 29.61 in 10.0 mi South 9.2 mph - N/A   Mostly Cloudy